Location: Brzeziny
(50.5248°N, 19.8273°E)
Time: 11:56:33
(UTC+00:00)

Daily predictions for brighter satellites

Satellite Brightness Start Highest point End
(mag) Time Altitude Azimuth Time Altitude Azimuth Time Altitude Azimuth
Cosmos 2034 Rocket 4.4 15:06:48 10° NNW 15:13:00 71° W 15:19:07 10° S
Cosmos 1606 Rocket 3.6 15:10:50 10° S 15:15:13 63° E 15:19:37 10° NNE
SMAP 3.5 15:11:47 10° SE 15:16:05 38° ENE 15:20:25 10° N
Cosmos 1726 Rocket 3.8 15:13:07 10° S 15:17:25 50° E 15:21:43 10° NNE
USA 306 1.5 15:17:24 10° WNW 15:19:38 48° NNE 15:21:46 10° E
ATLAS 5 CENTAUR R/B 4.3 15:15:27 10° WNW 15:20:04 33° WSW 15:25:35 10° S
Cosmos 1500 3.8 15:20:48 10° N 15:23:57 29° ENE 15:27:04 10° SE
Tsikada Rocket 4.0 15:18:04 10° S 15:24:18 82° E 15:30:31 10° N
Cosmos 1825 Rocket 3.7 15:20:23 10° NNW 15:24:43 80° W 15:29:01 10° S
Cosmos 2263 Rocket 3.2 15:20:54 10° SSE 15:25:26 26° ESE 15:30:00 10° NE
Cosmos 1437 Rocket 2.8 15:23:39 10° N 15:27:16 50° ENE 15:30:55 10° SSE
Cosmos 2227 Rocket 2.2 15:21:58 10° SSW 15:27:35 72° ESE 15:33:15 10° NNE
CZ-2D R/B 3.1 15:24:14 10° SSE 15:27:54 74° ENE 15:31:36 10° N
Cosmos 1869 3.9 15:24:15 10° SSW 15:27:58 55° WNW 15:31:41 10° N
SL-8 R/B 4.0 15:23:34 10° W 15:28:19 70° S 15:33:05 10° E
SJ-11-01 4.2 15:24:25 10° SSE 15:29:03 82° ENE 15:33:44 10° NNW
Cosmos 2298 Rocket 4.1 15:24:30 10° SSW 15:29:49 87° WNW 15:35:12 10° NNE
H-2A R/B 4.3 15:29:02 10° SSW 15:33:24 28° W 15:37:43 10° NW
Cosmos 2151 3.1 15:29:18 10° N 15:33:31 55° ENE 15:37:42 10° SSE
Cosmos 2228 4.4 15:30:15 10° SW 15:34:22 40° WNW 15:38:29 10° N
CORIOLIS 4.2 15:31:09 10° SSE 15:36:24 60° ENE 15:41:41 10° N
ATLAS 2AS CENTAUR R/B 3.5 15:30:48 10° NW 15:37:06 32° NNE 15:42:49 11° ENE
Cosmos 1238 Rocket 2.7 15:33:30 10° SSW 15:37:18 76° W 15:40:36 10° N
CZ-2C R/B 2.5 15:35:03 10° SSE 15:38:36 77° ENE 15:42:12 10° NNW
Cosmos 2251 Rocket 4.4 15:35:00 10° N 15:39:33 28° NE 15:44:07 10° ESE
SL-16 R/B 3.9 15:33:59 10° N 15:39:37 36° WNW 15:45:13 10° WSW
Helios 1B rocket 2.7 15:38:35 10° S 15:42:29 68° WSW 15:46:26 10° NNW
YAOGAN 1 4.3 15:42:20 13° ENE 15:42:50 13° NE 15:44:48 10° NNE
CZ-4B R/B 3.9 15:39:27 10° SE 15:44:07 38° ENE 15:48:42 10° N
Cosmos 407 Rocket 4.4 15:40:08 10° N 15:44:33 27° NE 15:48:55 10° ESE
CZ-4B R/B 3.7 15:41:33 10° SSE 15:45:03 53° ENE 15:48:36 10° N
Cosmos 1812 4.2 15:44:27 10° SE 15:46:51 17° E 15:47:51 15° ENE
SL-16 R/B 2.5 15:44:13 10° NNW 15:49:55 75° WSW 15:55:34 10° SSE
Lacrosse 4 Rocket 2.1 15:50:14 10° NNW 15:54:17 35° NE 15:58:14 10° ESE
USA 305 2.6 15:50:30 10° WNW 15:54:17 62° NNE 15:57:19 15° E
Meteor 1-31 Rocket 2.5 15:51:23 10° SSE 15:55:03 69° ENE 15:58:46 10° N
Cosmos 2344 4.4 15:55:43 10° SSE 16:01:57 28° ESE 16:06:06 17° ENE
Cosmos 1943 3.3 15:58:27 10° NNW 16:03:58 52° NE 16:09:28 10° SE
Cosmos 1544 3.3 16:01:05 10° NNW 16:04:19 60° W 16:07:30 10° S
Radarsat Rocket 4.1 15:59:00 10° SE 16:04:34 49° ENE 16:10:23 10° N
Cosmos 1607 4.0 15:58:21 10° SSW 16:04:39 74° SE 16:10:12 15° NE
Cosmos 1269 Rocket 4.4 16:00:31 10° NNW 16:05:47 71° WSW 16:11:02 10° SSE
Cosmos 1076 Rocket 3.6 16:04:50 10° NNW 16:09:13 80° W 16:13:33 10° S
BREEZE-M DEB (TANK) 3.6 16:06:24 10° WSW 16:10:02 85° SSE 16:19:21 18° ENE
Cosmos 1812 Rocket 4.3 16:09:26 10° SSE 16:13:13 30° E 16:15:10 21° NE
SL-08 R/B 4.3 16:15:08 23° ENE 16:15:55 24° E 16:19:39 10° SSE
Cosmos 2297 Rocket 3.5 16:10:55 10° WSW 16:16:07 37° NW 16:21:23 10° NNE
Cosmos 2219 3.3 16:12:10 10° SSW 16:17:46 79° WNW 16:23:08 12° NNE
ADEOS 3.9 16:13:03 10° SE 16:17:54 41° ENE 16:22:47 10° N
Cosmos 44 4.0 16:14:08 10° NW 16:19:30 63° SW 16:24:37 10° SSE
USA 234 3.4 16:16:20 20° ENE 16:20:58 60° SE 16:27:25 10° SW
DMSP B5D2-2 4.3 16:16:15 10° N 16:21:28 73° WNW 16:26:39 10° SSW
Cosmos 1602 3.5 16:19:26 10° N 16:23:10 85° E 16:26:54 10° S
Meteor 1-25 Rocket 4.3 16:17:51 10° N 16:23:28 54° ENE 16:28:57 10° SSE
Cosmos 1023 Rocket 4.4 16:18:42 10° NNW 16:23:53 66° ENE 16:28:58 10° SE
Cosmos 1666 2.8 16:24:26 10° NNW 16:27:57 67° W 16:31:28 10° S
USA 307 2.6 16:25:31 10° WNW 16:29:24 79° SSW 16:31:19 28° ESE
ISS -2.6 16:30:21 10° W 16:33:32 40° SSW 16:35:28 20° SSE
Cosmos 2082 3.6 16:29:29 10° SSW 16:35:06 89° WNW 16:39:27 18° NNE
COSMO-SKYMED 1 2.7 16:34:41 29° NE 16:36:35 48° E 16:40:47 10° S
Cosmos 2026 Rocket 4.3 16:32:29 10° SSE 16:38:17 43° E 16:44:13 10° NNE
ATLAS CENTAUR R/B 2.8 16:35:41 10° WNW 16:39:53 76° SW 16:48:06 10° SE
Cosmos 2058 Rocket 4.1 16:35:40 10° SSW 16:39:56 46° WNW 16:44:13 10° N
Cosmos 1833 Rocket 4.3 16:37:35 10° N 16:40:51 17° NNE 16:40:51 17° NNE
Lacrosse 5 3.6 16:43:20 10° SSE 16:45:42 17° SE 16:45:42 17° SE
Helios 1A 2.9 16:44:13 19° NNE 16:47:10 89° W 16:51:19 10° SSW
CBERS 1 LM4 rocket 4.4 16:44:27 10° SSE 16:49:18 80° WSW 16:54:04 10° NNW
Cosmos 1140 Rocket 3.5 16:44:57 10° NNW 16:50:10 83° WSW 16:55:19 10° SSE
Cosmos 1092 Rocket 4.0 16:45:30 10° SSE 16:51:25 53° E 16:57:22 10° NNE
USA 306 4.1 16:52:57 10° W 16:54:02 19° WSW 16:54:02 19° WSW
Nadezhda 4 Rocket 3.9 16:48:45 10° S 16:54:55 85° W 17:01:05 10° N
CZ-4B R/B 3.1 16:58:57 56° NE 16:58:57 56° NE 17:02:45 10° N
Meteor 1-20 Rocket 4.4 16:53:47 10° NNW 16:59:19 73° W 17:04:55 10° S
CZ-4B R/B 4.2 17:00:48 29° NNE 17:00:48 29° NNE 17:04:19 10° N
Cosmos-2242 3.2 16:57:55 10° SSW 17:02:15 73° W 17:05:03 22° N
Meteor 1-5 Rocket 4.2 16:59:42 10° N 17:05:17 59° ENE 17:10:59 10° SSE
Cosmos 2227 4.2 17:00:54 10° SSW 17:06:36 66° ESE 17:08:10 47° NE
NOAA 6 4.5 17:01:51 10° S 17:06:56 62° WSW 17:12:02 10° NNW
Cosmos 2263 Rocket 2.6 17:03:28 10° SW 17:08:58 60° NW 17:12:13 25° NNE
Cosmos 1844 Rocket 3.6 17:05:23 10° S 17:08:55 31° SE 17:08:55 31° SE
Cosmos 2082 Rocket 4.3 17:08:57 10° N 17:10:23 12° NNE 17:10:23 12° NNE
RESURS DK-1 4.2 17:07:48 10° NNW 17:09:16 19° N 17:09:16 19° N
Cosmos 2227 Rocket 3.9 17:07:23 10° W 17:12:11 28° NW 17:16:16 13° N
EO 1 Delta rocket 4.4 17:06:05 10° SSE 17:13:02 75° ENE 17:18:30 10° N
Cosmos 1428 Rocket 4.5 17:11:33 10° S 17:17:52 87° W 17:24:13 10° N
YAOGAN 1 3.1 17:19:24 47° N 17:19:24 47° N 17:22:30 10° NNW
Cosmos 1603 3.9 17:15:07 10° NNW 17:20:48 68° WSW 17:26:12 11° SSE
Cosmos 1812 3.7 17:18:09 10° SSW 17:21:40 42° WNW 17:22:20 38° NW
Cosmos 2251 Rocket 4.0 17:16:56 10° NNW 17:22:12 60° WSW 17:27:27 10° S
SKYMED 2 4.0 17:23:18 39° NNW 17:24:42 59° WNW 17:28:57 10° SSW
Cosmos 1627 Rocket 4.4 17:19:47 10° S 17:26:04 88° E 17:32:28 10° N
Cosmos 407 Rocket 4.0 17:21:48 10° NNW 17:26:52 57° WSW 17:31:52 10° S
USA 305 3.8 17:25:29 10° WNW 17:28:38 39° WSW 17:28:38 39° WSW
ATLAS 2AS CENTAUR R/B 2.5 17:22:11 10° NW 17:29:11 71° NE 17:30:17 60° E
Lacrosse 4 Rocket 2.9 17:28:42 10° NW 17:32:43 37° WSW 17:34:32 25° SSW
Cosmos 1954 Rocket 4.3 17:34:41 10° NNW 17:38:57 58° NNW 17:38:57 58° NNW
Cosmos 1818 3.8 17:35:55 10° SSW 17:40:25 60° S 17:40:25 60° S
Timation 2 Rocket 4.5 17:41:10 10° SSW 17:45:09 42° S 17:45:09 42° S
SL-08 R/B 4.1 17:54:03 47° WNW 17:54:03 47° WNW 17:58:17 10° SW
ADEOS Rocket 4.4 18:05:29 23° N 18:05:29 23° N 18:07:37 10° N
USA 234 3.3 18:03:40 65° N 18:04:05 67° NNW 18:10:34 10° W
Cosmos 1553 Rocket 4.2 18:02:55 10° NNW 18:09:13 67° W 18:10:28 54° SSW
Cosmos 2344 3.5 18:08:06 10° SW 18:15:30 73° NW 18:16:07 69° N
Lacrosse 5 4.2 18:23:50 10° SW 18:24:56 17° SW 18:24:56 17° SW
Cosmos 2263 Rocket 4.5 18:50:26 10° WNW 18:53:56 17° NW 18:53:56 17° NW
ATLAS 2AS CENTAUR R/B 4.3 19:13:40 10° NW 19:17:44 28° W 19:17:44 28° W
